Weather History for Teterboro, NJ

Change the Weather History Date:

Monday, October 6, 2014

  Actual Average Record
Temperature  
Mean Temperature 57 °F -  
Max Temperature 71 °F 67 °F 88 °F (2007)
Min Temperature 44 °F 47 °F 36 °F (2003)
Degree Days  
Heating Degree Days 8    
Growing Degree Days 7 (Base 50)    
Moisture  
Dew Point 44 °F    
Average Humidity 60    
Maximum Humidity 82    
Minimum Humidity 34    
Precipitation  
Precipitation 0.00 in - - ()
Sea Level Pressure  
Sea Level Pressure 30.03 in    
Wind  
Wind Speed 5 mph (South)    
Max Wind Speed 17 mph    
Max Gust Speed 25 mph    
Visibility 10 miles    
Events      
Averages and records for this station are not official NWS values.
T = Trace of Precipitation, MM = Missing Value Source: NWS Daily Summary

Daily Weather History Graph

Daily Weather History Graph

Search for Another Location

Airport:

Trip Planner

Search our weather history database for the weather conditions in past years. The results will help you decide how hot, cold, wet, or windy it might be!

Date:

Astronomy

Oct. 06, 2014 Rise Set
Actual Time 6:57 AM EDT 6:30 PM EDT
Civil Twilight 6:30 AM EDT 6:57 PM EDT
Nautical Twilight 5:58 AM EDT 7:29 PM EDT
Astronomical Twilight 5:26 AM EDT 8:01 PM EDT
Moon 5:25 PM EDT (10/6) 4:40 AM EDT (10/6)
Length of Visible Light 12h 26m
Length of Day
11h 32m
Waxing Gibbous, 95% of the Moon is Illuminated
Oct 6
Waxing Gibbous
Oct 8
Full
Oct 15
Last Quarter
Oct 23
New
Oct 30
First Quarter

Hourly Weather History & Observations

Time (EDT) Temp. Windchill Dew Point Humidity Pressure Visibility Wind Dir Wind Speed Gust Speed Precip Events Conditions
12:51 AM 46.0 °F - 37.9 °F 73% 30.01 in 10.0 mi Calm Calm - N/A   Clear
1:51 AM 45.0 °F - 37.9 °F 76% 30.01 in 10.0 mi Calm Calm - N/A   Mostly Cloudy
2:51 AM 46.0 °F - 39.9 °F 79% 30.01 in 10.0 mi Calm Calm - N/A   Mostly Cloudy
3:51 AM 46.0 °F - 39.0 °F 76% 30.02 in 10.0 mi Calm Calm - N/A   Clear
4:51 AM 45.0 °F - 37.9 °F 76% 30.03 in 10.0 mi Calm Calm - N/A   Clear
5:51 AM 44.1 °F 42.5 °F 39.0 °F 82% 30.03 in 10.0 mi NW 3.5 mph - N/A   Clear
6:51 AM 44.1 °F - 39.0 °F 82% 30.04 in 10.0 mi Calm Calm - N/A   Clear
7:51 AM 46.0 °F - 39.9 °F 79% 30.05 in 10.0 mi Calm Calm - N/A   Clear
8:51 AM 52.0 °F - 42.1 °F 69% 30.06 in 10.0 mi Calm Calm - N/A   Clear
9:51 AM 57.0 °F - 43.0 °F 59% 30.07 in 10.0 mi Calm Calm - N/A   Clear
10:51 AM 66.0 °F - 37.0 °F 34% 30.06 in 10.0 mi South 15.0 mph 20.7 mph N/A   Clear
11:51 AM 66.9 °F - 42.1 °F 40% 30.06 in 10.0 mi South 13.8 mph - N/A   Clear
12:51 PM 69.1 °F - 42.1 °F 38% 30.05 in 10.0 mi South 13.8 mph - N/A   Clear
1:51 PM 69.1 °F - 44.1 °F 40% 30.03 in 10.0 mi SSE 15.0 mph 23.0 mph N/A   Clear
2:51 PM 70.0 °F - 45.0 °F 41% 30.01 in 10.0 mi South 13.8 mph 21.9 mph N/A   Clear
3:51 PM 69.1 °F - 46.9 °F 45% 30.00 in 10.0 mi SSE 17.3 mph 25.3 mph N/A   Clear
4:51 PM 68.0 °F - 48.0 °F 49% 30.01 in 10.0 mi SSE 16.1 mph 21.9 mph N/A   Clear
5:51 PM 68.0 °F - 48.9 °F 50% 30.01 in 10.0 mi SSE 13.8 mph 23.0 mph N/A   Clear
6:51 PM 64.9 °F - 50.0 °F 58% 30.03 in 10.0 mi SSE 15.0 mph 21.9 mph N/A   Clear
7:51 PM 64.9 °F - 48.9 °F 56% 30.04 in 10.0 mi South 15.0 mph 19.6 mph N/A   Clear
8:51 PM 64.0 °F - 48.9 °F 58% 30.04 in 10.0 mi South 13.8 mph 21.9 mph N/A   Clear
9:51 PM 64.0 °F - 50.0 °F 60% 30.05 in 10.0 mi South 11.5 mph - N/A   Clear
10:51 PM 64.0 °F - 51.1 °F 63% 30.04 in 10.0 mi South 10.4 mph - N/A   Clear
11:51 PM 63.0 °F - 51.1 °F 65% 30.04 in 10.0 mi South 9.2 mph - N/A   Clear